SIRIUS FM-5

导读 | 星芒AI

SIRIUS FM-5 是一颗由劳拉空间系统公司制造的卫星,于2005年发射,用于SIRIUS卫星广播服务。该卫星运行在地球同步轨道,主要负责向北美地区传输数字音频信号,提供高质量的卫星广播服务。作为SIRIUS卫星网络的一部分,FM-5 提升了频道覆盖范围与信号稳定性,支持多种音乐、新闻和娱乐频道。其先进设计确保了长期可靠运行,为用户带来清晰、无干扰的收听体验。

基本信息
目录编号:
35493
目录名称:
SIRIUS FM-5
国际标识:
2009-034A
轨道中心:
EARTH
卫星名称:
SIRIUS FM-5
卫星全名:
--
卫星状态:
在轨 (已飞行5965 天)
发射日期:
2009-06-30 UTC
国别 :
美国 (US)
星等 :
--
轨道信息
数据来源 国际轨道数据 AOE轨道数据
星历时间 2025-10-28T22:20:43+0800
16小时前
查看轨道信息
2025-10-25T16:00:00+0800
3天前
查看轨道信息
半长轴 42165.009km 42164.588km
偏心率 0.0000664 0.0000284
轨道倾角 0.023° 0.017°
近地点辐角 210.375° 208.236°
升交点赤经 267.632° 267.420°
平近点角 48.258° 312.200°
近地点 35784.074km 35785.255km
远地点 35789.674km 35787.651km
周期 1436.111分钟 1436.090分钟
每日圈数 1.002708 1.002723
详细信息
使用方式:
暂无
2D轨道图
3D轨道图
轨道高度分析图
轨道倾角分析图
轨道综合分析图
查看轨道综合分析图